TJS-2

Last updated on Jan. 17, 2021, 6:29 a.m. UTC

1 41911U 17001A   21016.79572389 -.00000347  00000-0  00000-0 0  9990
2 41911   0.2126 283.7030 0007643  39.3447 187.3208  1.00272307 14907
UTC
Height (km)
Latitude
Longitude
Inclination
Orbital Period
UTC large
Height (km)
Speed (km/s)
/
Latitude / Longitude
Inclination (degrees)
Orbital Period (minutes)
Azimuth
Elevation
Range (km)
Doppler Factor
iOS Compass Heading
iOS Angle

Next 30 passes for location: Hong Kong

Rise time Rise Azimuth (degrees) Set time Set Azimuth (degrees) Duration Max altitude (degrees)

No matching passes for this satellites